Location: Bullenkuhlen
(53.7689°N, 9.7495°E)
Time: 02:33:10
(UTC+00:00)

Mayak - Pass Details

Date: 09 April 2020
Orbit: 581 x 600 km, 97.5° (Epoch: 03 June)

Event Time Altitude Azimuth Distance (km) Brightness Sun altitude
Rises 23:34:58 0° 1° (N) 2,829 ? -28.1°
Reaches altitude 10° 23:38:12 10° 334° (NNW) 1,919 ? -28.1°
Maximum altitude 23:40:05 13° 307° (NW) 1,729 ? -28.1°
Enters shadow 23:41:08 12° 291° (WNW) 1,786 ? -28.1°
